Regional Weather Roundup
Issued by NWS

Home | Current Version | Previous Version | Graphics & Text | Print | Product List | Glossary On
Versions: 1 2 3 4 5 6 7 8 9 10 11 12 13 14 15 16 17 18 19 20 21 22 23 24 25 26 27 28 29 30 31 32 33 34 35 36 37 38 39 40 41 42 43 44 45 46 47 48 49 50
000
ASUS43 KDMX 230006
RWRIA

WEATHER ROUNDUP FOR IOWA
NATIONAL WEATHER SERVICE DES MOINES IA
700 PM CDT SUN APR 22 2018

NOTE: "FAIR" INDICATES FEW OR NO CLOUDS BELOW 12,000 FEET WITH NO
SIGNIFICANT WEATHER AND/OR OBSTRUCTIONS TO VISIBILITY.

* - THESE STATIONS ARE NOT NWS STATIONS...THUS NOT UNDER NWS
QUALITY CONTROL.  THEY ALSO DO NOT REPORT WEATHER SUCH
AS PRECIPITATION OR FOG.

IAZ001>003-012>014-020>022-031>034-043>046-230100-
   NORTHWEST IOWA

CITY           SKY/WX    TMP DP  RH WIND       PRES   REMARKS
CARROLL *      PTSUNNY   66  27  22 E10       30.17S
CHEROKEE *     SUNNY     58  42  55 NE12      30.19F
DENISON *      MOSUNNY   63  28  27 E10       30.17S
LE MARS *      SUNNY     61  39  44 E9G16     30.18F
ORANGE CITY *  SUNNY     61  43  51 E10       30.20S
SHELDON *      SUNNY     55  43  62 SE12      30.19S
SIOUX CITY     SUNNY     65  33  30 E14       30.15F
6HR MIN TEMP:  62; 6HR MAX TEMP:  68;

SPENCER        SUNNY     54  40  59 E13       30.21F
6HR MIN TEMP:  54; 6HR MAX TEMP:  58;

STORM LAKE *   SUNNY     55  46  71 NE14      30.18F
$$

IAZ055>058-069>071-079>083-090>094-230100-
   SOUTHWEST IOWA

CITY           SKY/WX    TMP DP  RH WIND       PRES   REMARKS
ATLANTIC *     CLOUDY    64  30  27 E7G14     30.14S
AUDUBON *      CLOUDY    64  21  19 E9        30.17S
CLARINDA *     SUNNY     68  34  28 E10       30.14S
COUNCIL BLFS * CLOUDY    64  34  32 E9        30.13F
CRESTON *      SUNNY     66  32  28 E16G23    30.15R
HARLAN  *      PTSUNNY   64  28  25 E7G14     30.18S
LAMONI         CLOUDY    68  34  28 E10G22    30.11S
6HR MIN TEMP:  62; 6HR MAX TEMP:  70;

RED OAK *      SUNNY     68  34  28 E15       30.13R
SHENANDOAH *   CLOUDY    68  34  28 NE12G17   30.12S
$$

IAZ047>049-059>061-072>074-084-230100-
   CENTRAL IOWA

CITY           SKY/WX    TMP DP  RH WIND       PRES   REMARKS
AMES           SUNNY     65  23  20 E12       30.18R
6HR MIN TEMP:  64; 6HR MAX TEMP:  69;

ANKENY *       MOSUNNY   66  19  16 E12       30.18R
BOONE *        SUNNY     64  21  19 E17       30.17R
CHARITON *     MOSUNNY   66  28  24 NE13G18   30.13S
DES MOINES     PTSUNNY   66  20  17 E10       30.17R
6HR MIN TEMP:  65; 6HR MAX TEMP:  72;

GRINNELL*      MOCLDY    64  27  25 E16       30.18F
KNOXVILLE *    SUNNY     63  19  19 NE10      30.14S
MARSHALLTOWN   CLOUDY    63  33  32 E13       30.19R
6HR MIN TEMP:  62; 6HR MAX TEMP:  68;

NEWTON *       PTSUNNY   63  23  22 E9        30.17S
PELLA *        MOSUNNY   65  15  14 NE8       30.16S
PERRY *        FAIR      64  15  15 E12       30.16F
$$

IAZ004>006-015-016-023>025-035-036-230100-
   NORTH CENTRAL IOWA

CITY           SKY/WX    TMP DP  RH WIND       PRES   REMARKS
ALGONA *       SUNNY     55  43  62 NE13      30.22S
CLARION *      SUNNY     63  36  36 E13       30.20S
ESTHERVILLE    SUNNY     45  39  79 E7        30.22F
6HR MIN TEMP:  44; 6HR MAX TEMP:  48;

FORT DODGE *   SUNNY     63  36  36 E13       30.19S
MASON CITY     SUNNY     58  42  55 NE12      30.23F
6HR MIN TEMP:  56; 6HR MAX TEMP:  62;

FOREST CITY *  FAIR      55  41  58 NE8       30.23S
WEBSTER CITY * SUNNY     63  32  31 E13       30.17S
IOWA FALLS *   FAIR      66  32  28 E14       30.20S
$$

IAZ007>011-017>019-026>030-037>042-050>054-066-230100-
   NORTHEAST IOWA

CITY           SKY/WX    TMP DP  RH WIND       PRES   REMARKS
CEDAR RAPIDS   FAIR      63  31  30 E14       30.18S
6HR MIN TEMP:  61; 6HR MAX TEMP:  69;

CHARLES CITY * FAIR      61  34  36 NE10      30.22S
CLINTON *      FAIR      60  31  33 E14       30.22R
DECORAH *      FAIR      61  28  29 E9        30.22F
DUBUQUE        FAIR      61  31  32 E12       30.22S
6HR MIN TEMP:  60; 6HR MAX TEMP:  64;

MONTICELLO *   FAIR      63  32  31 E8        30.21R
OELWEIN *      FAIR      63  34  34 E12G17    30.22R
WATERLOO       FAIR      63  34  33 E14       30.20S
6HR MIN TEMP:  62; 6HR MAX TEMP:  67;

$$

IAZ064-065-067-068-078-230100-
   EAST CENTRAL IOWA

CITY           SKY/WX    TMP DP  RH WIND       PRES   REMARKS
DAVENPORT      FAIR      61  29  29 E13       30.21S
6HR MIN TEMP:  61; 6HR MAX TEMP:  68;

IOWA CITY      FAIR      64  28  25 NE12      30.20R
6HR MIN TEMP:  63; 6HR MAX TEMP:  69;

MT. PLEASANT * CLOUDY    61  21  21 E12       30.16S
MUSCATINE *    CLOUDY    64  30  27 NE9       30.18S
QUAD CITIES    CLOUDY    64  28  25 E17       30.18R
6HR MIN TEMP:  64; 6HR MAX TEMP:  69;

$$

IAZ062-063-075>077-085>089-095>099-230100-
   SOUTHEAST IOWA

CITY           SKY/WX    TMP DP  RH WIND       PRES   REMARKS
BURLINGTON     CLOUDY    62  21  20 NE13      30.14F
6HR MIN TEMP:  62; 6HR MAX TEMP:  71;

FAIRFIELD *    CLOUDY    64  18  16 E12       30.15S
FORT MADISON * CLOUDY    63  25  23 NE10      30.14F
KEOKUK *       CLOUDY    63  23  22 NE7G14    30.12S
OSKALOOSA *    CLOUDY    65  17  16 E17       30.16R
CENTERVILLE *    N/A     64  37  36 E8        30.14S
OTTUMWA        CLOUDY    66  21  18 E13       30.15R
6HR MIN TEMP:  65; 6HR MAX TEMP:  71;

WASHINGTON *   CLOUDY    63  28  27 NE13      30.18S
$$

ABBREVIATIONS USED IN REMARKS
   TC - TEMPERATURES IN CELSIUS
  WCI - WIND CHILL INDEX
   HX - HEAT INDEX
  VSB - VISIBILITY
$$





USA.gov is the U.S. government's official web portal to all federal, state and local government web resources and services.